English version Home page |
Updated on July 28, 2007 |
|
軌道要素Epoch = 1998 Nov. 3.0 TT T = 1998 Oct. 20.75954 TT Peri. = 49.53569 e = 0.5215660 Node = 336.22405 2000.0 q = 2.0253092 AU Incl. = 2.19329 a = 4.2332052 AU n = 0.11316187 P = 8.71 years
|
星図
|
光度変化m1 = 7.5 + 5 logΔ + 30.0 log r
|
軌道要素は、
IAUC 8859
に掲載されたものです。
|